Regional Weather Roundup
Issued by NWS Little Rock, AR

Current Version | Previous Version | Text Only | Print | Product List | Glossary On
Versions: 1 2 3 4 5 6 7 8 9 10 11 12 13 14 15 16 17 18 19 20 21 22 23 24 25 26 27 28 29 30 31 32 33 34 35 36 37 38 39 40 41 42 43 44 45 46 47 48 49 50
000
ASUS44 KLZK 190610
RWRLZK

WEATHER ROUNDUP FOR ARKANSAS
NATIONAL WEATHER SERVICE LITTLE ROCK AR
100 AM CDT THU MAY 19 2022

NOTE: "FAIR" INDICATES FEW OR NO CLOUDS BELOW 12,000 FEET WITH NO
SIGNIFICANT WEATHER AND/OR OBSTRUCTIONS TO VISIBILITY.

ARZ001-010-029-103-190700-
NORTHWEST ARKANSAS

CITY           SKY/WX    TMP DP  RH WIND       PRES   REMARKS
FAYETTEVILLE   PTCLDY    68  66  93 S3        29.84F
6HR MIN TEMP:  68; 6HR MAX TEMP:  83;

FORT SMITH     PTCLDY    74  70  87 NE3       29.82R
6HR MIN TEMP:  73; 6HR MAX TEMP:  88;

HARRISON       PTCLDY    72  65  78 CALM      29.84F
6HR MIN TEMP:  71; 6HR MAX TEMP:  83;

BENTONVILLE    PTCLDY    73  70  90 S3        29.85F
6HR MIN TEMP:  73; 6HR MAX TEMP:  82;

ROGERS         PTCLDY    71  68  90 CALM      29.85F
6HR MIN TEMP:  71; 6HR MAX TEMP:  82;

SILOAM SPGS    PTCLDY    70  69  97 SE3       29.84F
6HR MIN TEMP:  69; 6HR MAX TEMP:  82;

HIGHFILL       PTCLDY    71  67  87 S6        29.84F
6HR MIN TEMP:  71; 6HR MAX TEMP:  83;

$$

ARZ004-005-016-190700-
NORTH CENTRAL ARKANSAS

CITY           SKY/WX    TMP DP  RH WIND       PRES   REMARKS
BATESVILLE     CLEAR     76  68  76 SW5       29.81F
6HR MIN TEMP:  72; 6HR MAX TEMP:  85;

FLIPPIN        CLEAR     75  68  78 SW5       29.81F
6HR MIN TEMP:  73; 6HR MAX TEMP:  85;

MTN HOME       PTCLDY    73  67  81 W5        29.80F
6HR MIN TEMP:  72; 6HR MAX TEMP:  85; 6HR PCP: TRACE;

$$

ARZ140-141-190700-
WEST CENTRAL ARKANSAS

CITY           SKY/WX    TMP DP  RH WIND       PRES   REMARKS
MENA           CLEAR     68  68 100 CALM      29.86S
MOUNT IDA      CLEAR     70  67  90 CALM      29.83S
6HR MIN TEMP:  70; 6HR MAX TEMP:  85;

$$

ARZ009-017-025-026-028-190700-
NORTHEAST ARKANSAS

CITY           SKY/WX    TMP DP  RH WIND       PRES   REMARKS
JONESBORO      PTCLDY    75  67  76 SW8       29.80F
6HR MIN TEMP:  75; 6HR MAX TEMP:  84;

NEWPORT        CLEAR     72  67  84 S7        29.81F
6HR MIN TEMP:  72; 6HR MAX TEMP:  85;

WALNUT RIDGE   MOCLDY    77  69  76 MISG      29.79F
6HR MIN TEMP:  77; 6HR MAX TEMP:  85;

BLYTHEVILLE    PTCLDY    75  64  68 S7        29.81F
6HR MIN TEMP:  75; 6HR MAX TEMP:  88;

$$

ARZ032-043-044-190700-
LITTLE ROCK METRO AREA

CITY           SKY/WX    TMP DP  RH WIND       PRES   REMARKS
LITTLE ROCK    PTCLDY    75  69  81 CALM      29.84F
6HR MIN TEMP:  74; 6HR MAX TEMP:  86;

N LTL ROCK NWS   N/A     75  69  81 CALM      29.80F
6HR MIN TEMP:  74; 6HR MAX TEMP:  84;

NLR AIRPORT    FAIR      73  70  88 S6        29.84S
CONWAY         CLOUDY    73  72  94 S6        29.82F
$$

ARZ033-042-122-123-190700-
REMAINDER OF CENTRAL ARKANSAS

CITY           SKY/WX    TMP DP  RH WIND       PRES   REMARKS
SEARCY         PTCLDY    73  69  87 SW5       29.83F
6HR MIN TEMP:  70; 6HR MAX TEMP:  85;

HOT SPRINGS    CLEAR     74  69  85 CALM      29.85F
6HR MIN TEMP:  73; 6HR MAX TEMP:  87;

RUSSELLVILLE   PTCLDY    70  67  90 CALM      29.83
6HR MIN TEMP:  70; 6HR MAX TEMP:  87;

CLINTON        FAIR      68  66  94 CALM      29.84F
$$

ARZ036-190700-
EAST ARKANSAS

CITY           SKY/WX    TMP DP  RH WIND       PRES   REMARKS
WEST MEMPHIS   CLEAR     77  66  68 S6        29.82F
6HR MIN TEMP:  77; 6HR MAX TEMP:  86;

$$

ARZ050-053-066-070-073-190700-
SOUTHWEST ARKANSAS

CITY           SKY/WX    TMP DP  RH WIND       PRES   REMARKS
ARKADELPHIA    FAIR      71  70  96 CALM      29.84S
6HR MIN TEMP:  71; 6HR MAX TEMP:  85;

CAMDEN         PTCLDY    73  73 100 S6        29.82S
TEXARKANA      CLEAR     79  68  69 S13       29.82S
6HR MIN TEMP:  79; 6HR MAX TEMP:  89;

EL DORADO      PTCLDY    75  69  81 S7        29.85R
6HR MIN TEMP:  72; 6HR MAX TEMP:  85;

DE QUEEN       CLEAR     71  68  90 E3        29.80R
6HR MIN TEMP:  71; 6HR MAX TEMP:  87;

$$

ARZ056-057-069-190700-
SOUTHEAST ARKANSAS

CITY           SKY/WX    TMP DP  RH WIND       PRES   REMARKS
PINE BLUFF     CLEAR     73  70  90 CALM      29.85S
6HR MIN TEMP:  72; 6HR MAX TEMP:  87;

STUTTGART      CLEAR     75  70  84 S6        29.85F
6HR MIN TEMP:  74; 6HR MAX TEMP:  86;

MONTICELLO     CLEAR     79  69  71 S12       29.84R
6HR MIN TEMP:  78; 6HR MAX TEMP:  86;


$$





USA.gov is the U.S. government's official web portal to all federal, state and local government web resources and services.